Jonesboro, AR

6:49 AM CDT on August 19, 2017 (GMT -0500)
Jonesboro Municipal

Weather History for KJBR - October, 2012

Change the Weather History Date:

Thursday, October 25, 2012

  Actual Average Record
Temperature  
Mean Temperature 67 °F 58 °F  
Max Temperature 83 °F 70 °F 87 °F (1902)
Min Temperature 50 °F 47 °F 28 °F (1999)
Degree Days  
Heating Degree Days 0 8  
Month to date heating degree days 107 119  
Since 1 July heating degree days 113 137  
Cooling Degree Days 2 1  
Month to date cooling degree days 38 47  
Year to date cooling degree days 2343 1818  
Growing Degree Days 18 (Base 50)    
Moisture  
Dew Point 59 °F    
Average Humidity 71    
Maximum Humidity 90    
Minimum Humidity 51    
Precipitation  
Precipitation 0.21 in 0.15 in 1.65 in (1976)
Month to date precipitation 2.35 3.55  
Year to date precipitation 27.31 37.72  
Snow  
Snow 0.00 in 0.00 in 0.00 in (2002)
Month to date snowfall 0.0 0.0  
Since 1 July snowfall 0.0 0.0  
Since 1 September snowfall 0.0 0.0  
Snow Depth 0.00 in    
Sea Level Pressure  
Sea Level Pressure 29.94 in    
Wind  
Wind Speed 11 mph (SSW)    
Max Wind Speed 24 mph    
Max Gust Speed 31 mph    
Visibility 10 miles    
Events Rain    
T = Trace of Precipitation, MM = Missing Value Source: NWS Daily Summary

Daily Weather History Graph

Daily Weather History Graph

Search for Another Location

Airport or City:

Trip Planner

Search our weather history database for the weather conditions in past years. The results will help you decide how hot, cold, wet, or windy it might be!

Date:

Astronomy

Oct. 25, 2012 Rise Set
Actual Time 7:18 AM CDT 6:13 PM CDT
Civil Twilight 6:52 AM CDT 6:40 PM CDT
Nautical Twilight 6:22 AM CDT 7:10 PM CDT
Astronomical Twilight 5:52 AM CDT 7:39 PM CDT
Moon 3:54 PM CDT (10/25) 3:22 AM CDT (10/25)
Length of Visible Light 11h 47m
Length of Day
10h 55m
Waxing Gibbous, 84% of the Moon is Illuminated
Oct 25
Waxing Gibbous
Oct 29
Full
Nov 6
Last Quarter
Nov 13
New
Nov 20
First Quarter

Hourly Weather History & Observations

Time (CDT) Temp. Heat Index Dew Point Humidity Pressure Visibility Wind Dir Wind Speed Gust Speed Precip Events Conditions
12:53 AM 64.9 °F - 59.0 °F 81% 29.94 in 10.0 mi South 6.9 mph - N/A   Clear
1:53 AM 64.0 °F - 59.0 °F 84% 29.93 in 10.0 mi South 6.9 mph - N/A   Clear
2:53 AM 63.0 °F - 59.0 °F 87% 29.92 in 10.0 mi South 4.6 mph - N/A   Clear
3:53 AM 63.0 °F - 59.0 °F 87% 29.91 in 10.0 mi South 6.9 mph - N/A   Clear
4:53 AM 64.0 °F - 59.0 °F 84% 29.91 in 10.0 mi South 5.8 mph - N/A   Mostly Cloudy
5:53 AM 64.0 °F - 59.0 °F 84% 29.94 in 10.0 mi Calm Calm - N/A   Mostly Cloudy
6:53 AM 64.0 °F - 59.0 °F 84% 29.94 in 10.0 mi South 6.9 mph - N/A   Overcast
7:53 AM 64.0 °F - 59.0 °F 84% 29.96 in 10.0 mi South 9.2 mph - N/A   Mostly Cloudy
8:53 AM 66.0 °F - 61.0 °F 84% 29.96 in 10.0 mi South 9.2 mph - N/A   Mostly Cloudy
9:53 AM 71.1 °F - 62.1 °F 73% 29.96 in 10.0 mi South 8.1 mph - N/A   Mostly Cloudy
10:53 AM 77.0 °F - 64.0 °F 64% 29.96 in 10.0 mi SW 13.8 mph 23.0 mph N/A   Partly Cloudy
11:53 AM 80.1 °F 81.9 °F 64.9 °F 60% 29.94 in 10.0 mi SSW 17.3 mph - N/A   Scattered Clouds
12:53 PM 81.0 °F 82.2 °F 63.0 °F 54% 29.92 in 10.0 mi SSW 19.6 mph 27.6 mph N/A   Partly Cloudy
1:53 PM 82.0 °F 83.1 °F 63.0 °F 52% 29.90 in 10.0 mi South 17.3 mph - N/A   Mostly Cloudy
2:53 PM 82.0 °F 83.0 °F 62.1 °F 51% 29.88 in 10.0 mi SSW 17.3 mph 25.3 mph N/A   Partly Cloudy
3:53 PM 80.1 °F 81.1 °F 61.0 °F 52% 29.88 in 10.0 mi SSW 15.0 mph 24.2 mph N/A   Mostly Cloudy
4:53 PM 81.0 °F 81.7 °F 61.0 °F 50% 29.87 in 10.0 mi South 15.0 mph 23.0 mph N/A   Partly Cloudy
5:53 PM 78.1 °F - 61.0 °F 56% 29.88 in 10.0 mi SSW 11.5 mph - N/A   Mostly Cloudy
6:53 PM 75.9 °F - 61.0 °F 60% 29.88 in 10.0 mi South 10.4 mph - N/A   Partly Cloudy
7:53 PM 73.0 °F - 62.1 °F 68% 29.90 in 10.0 mi South 5.8 mph - N/A   Mostly Cloudy
8:53 PM 68.0 °F - 60.1 °F 76% 29.94 in 10.0 mi NW 15.0 mph 25.3 mph N/A   Overcast
9:04 PM 64.4 °F - 57.2 °F 77% 29.96 in 10.0 mi NW 16.1 mph 23.0 mph N/A   Overcast
9:53 PM 57.9 °F - 53.1 °F 84% 29.99 in 10.0 mi NW 13.8 mph 24.2 mph N/A   Overcast
10:20 PM 57.2 °F - 51.8 °F 82% 30.02 in 10.0 mi NW 13.8 mph 28.8 mph 0.00 in   Overcast
10:53 PM 53.6 °F - 50.0 °F 88% 30.04 in 7.0 mi NW 13.8 mph 31.1 mph N/A Rain Light Rain
11:53 PM 51.1 °F - 48.9 °F 92% 30.07 in 10.0 mi NNW 11.5 mph 21.9 mph 0.04 in Rain Light Rain